Theta_e
333 332 331 331 331 329 328 328 327 326 325 324 324 323 322 319 314 310 307 305 303 301 300 299 299 299 299 299 299 299 299 299 299 299 299 299 299 299 299 298 298 298
332 332 331 331 329 328 328 328 327 326 324 323 322 320 318 315 311 307 305 303 301 300 299 299 299 299 299 298 298 299 299 299 299 299 298 298 298 298 298 298 298 298
332 332 331 330 328 328 328 327 327 325 323 322 320 317 315 311 308 305 303 301 300 299 299 299 298 298 298 298 298 298 298 298 298 298 298 298 298 298 298 297 297 297
332 331 331 329 328 328 328 327 325 324 322 321 318 315 312 308 305 303 301 299 299 298 298 298 298 298 298 298 298 298 298 298 298 298 298 298 297 297 297 297 297 297
331 331 330 329 328 328 327 325 324 323 321 319 316 312 309 306 303 301 300 299 298 298 298 298 298 298 297 297 298 298 298 298 297 297 297 297 297 297 297 296 296 297
331 330 329 328 328 328 326 325 323 322 321 317 313 309 306 304 301 299 299 298 298 298 298 298 297 297 297 297 297 298 297 297 297 297 297 297 297 297 296 296 296 296
331 330 328 328 328 327 325 324 323 321 319 315 310 306 304 302 300 299 298 298 298 297 297 297 297 297 297 297 297 297 297 297 296 296 296 297 296 296 296 296 296 295
331 329 328 328 328 326 325 324 322 320 318 312 307 304 302 300 299 298 298 298 297 297 297 297 297 297 297 297 296 297 297 296 296 296 296 296 296 296 295 295 295 295
330 329 329 329 328 326 324 323 320 319 316 309 304 303 301 300 299 298 298 298 297 297 297 297 297 297 296 296 296 296 296 296 296 296 296 296 296 295 295 295 295 294
330 329 329 328 327 325 323 321 319 318 314 307 302 302 300 299 299 298 298 298 297 297 296 296 297 296 296 296 295 296 296 296 296 296 296 295 295 295 295 294 294 294
329 330 329 327 326 325 323 321 319 317 312 304 301 301 299 299 298 298 298 297 297 296 296 296 296 296 295 295 295 295 295 296 296 296 295 295 295 294 294 294 293 293
329 329 328 326 326 324 323 320 318 316 310 303 300 300 299 298 298 298 298 297 296 296 296 296 296 295 295 295 295 295 295 295 295 295 295 294 294 294 293 293 293 293
329 329 327 326 325 323 322 319 317 315 308 302 300 299 298 298 298 297 298 298 297 297 296 296 296 295 295 295 295 295 295 295 295 295 295 294 294 293 293 293 293 293
329 327 326 325 324 322 321 318 316 313 306 301 299 298 297 298 298 297 298 299 299 298 297 297 296 295 295 295 295 295 294 295 294 294 294 294 294 293 293 293 293 293
328 327 325 324 322 321 319 317 315 311 305 300 299 298 297 297 298 297 298 299 299 297 297 296 295 295 295 295 295 294 294 294 294 294 294 293 293 293 293 292 292 293
328 326 324 323 321 320 318 316 314 310 303 300 299 298 297 297 297 297 298 298 298 297 296 295 295 296 295 295 295 295 294 294 294 294 293 293 293 293 292 292 292 292
327 325 323 322 320 319 317 315 313 309 302 299 299 298 297 297 296 297 298 298 297 297 296 295 295 295 295 295 295 295 295 295 294 294 293 294 294 293 293 293 292 292
326 324 323 321 319 317 316 314 313 308 301 299 299 298 297 296 296 297 297 297 297 297 296 295 295 295 296 296 295 295 295 296 296 294 294 295 295 295 296 295 293 292
325 324 322 320 318 317 315 313 312 306 300 299 299 298 297 296 296 297 297 296 296 296 296 295 294 295 296 295 296 295 294 297 298 296 296 297 296 296 297 296 295 295
324 324 322 319 318 317 314 313 311 306 300 299 300 298 297 296 295 296 296 295 296 296 296 295 294 295 296 295 296 295 294 298 300 298 297 298 296 295 296 294 294 296
325 323 321 319 318 316 313 312 310 306 301 300 300 298 297 296 295 295 295 295 295 295 296 296 295 294 295 295 295 295 294 297 300 300 299 299 297 294 295 294 292 294
325 323 321 319 318 316 313 311 309 305 301 300 300 299 298 296 295 295 295 294 295 296 297 297 295 294 296 295 294 295 295 296 300 301 301 300 298 295 294 294 292 293
324 324 321 319 318 316 313 311 309 305 301 300 300 299 298 296 294 294 294 294 295 295 296 296 295 294 295 295 294 295 295 296 300 302 301 301 300 297 295 294 292 293
324 323 320 318 317 315 313 311 309 304 301 300 299 298 297 296 294 294 294 294 294 294 294 295 294 294 295 295 295 295 295 296 299 301 301 302 300 297 296 296 293 292
325 322 319 317 316 314 313 311 308 304 301 300 299 298 297 296 294 293 294 293 293 293 293 294 294 294 294 295 294 294 295 295 296 299 301 300 298 296 295 294 293 292
325 322 320 318 316 314 312 310 307 304 302 301 300 299 299 297 294 293 294 293 293 293 293 293 293 293 294 294 294 294 294 294 297 301 301 297 295 296 295 293 292 293
Wind_Speed
16 15 13 10 9 8 7 6 6 5 5 6 6 7 6 5 8 11 12 12 11 11 11 12 13 14 14 14 13 13 13 12 12 11 11 10 10 10 10 11 12 12
17 15 13 12 10 9 8 7 6 5 6 8 9 7 5 9 11 13 12 12 12 12 12 13 14 14 14 14 13 12 12 12 12 11 10 10 10 10 11 11 12 11
17 15 15 13 11 10 9 7 6 7 8 9 8 5 9 13 14 14 13 12 12 12 13 14 15 15 15 14 13 12 12 11 11 10 10 10 10 11 11 11 11 11
18 16 16 14 12 10 9 6 6 7 8 9 5 8 13 14 15 14 14 13 13 13 14 15 15 15 15 14 12 12 12 11 11 10 10 10 10 11 11 11 10 10
18 18 16 14 13 11 9 7 6 7 8 7 6 13 14 14 15 14 14 14 13 14 15 15 15 15 15 14 12 11 11 11 11 10 10 10 10 10 11 10 10 10
20 18 15 15 13 11 9 7 7 8 8 5 12 16 15 15 15 14 14 14 14 14 15 15 15 15 15 13 12 11 11 11 11 10 9 9 10 10 10 10 10 11
21 18 16 16 14 12 10 8 8 9 6 8 16 17 15 16 15 14 14 14 14 14 15 15 15 15 14 13 12 11 11 11 11 10 9 9 9 9 10 10 10 12
21 17 16 17 15 12 10 8 8 8 6 13 18 17 16 16 15 15 14 14 15 15 15 15 15 15 14 13 11 10 11 11 11 10 8 8 9 9 10 10 11 12
20 16 17 17 14 12 10 9 8 7 8 17 19 17 17 16 15 15 15 15 15 15 15 15 15 15 14 13 11 10 10 10 10 9 8 8 9 9 10 10 11 12
19 18 19 17 13 13 11 9 8 6 12 20 20 18 18 16 15 15 15 15 15 15 15 15 14 14 14 13 12 11 10 10 10 9 9 9 9 10 10 11 11 12
19 20 20 16 15 14 12 11 9 8 16 22 20 18 18 17 17 16 15 15 15 15 15 14 14 14 13 13 12 12 11 10 9 9 9 9 9 10 11 11 11 11
21 22 19 17 16 15 14 14 11 11 19 22 20 19 18 18 18 17 16 16 15 15 14 14 14 13 13 13 13 12 11 10 9 9 9 9 10 10 11 11 11 11
24 22 19 18 17 16 16 15 12 14 21 23 21 19 19 18 18 17 17 16 15 15 15 14 14 14 14 14 13 12 11 10 9 9 9 9 10 10 11 11 11 11
23 21 19 19 18 17 17 16 13 17 23 23 22 20 19 19 18 18 18 17 16 16 15 14 14 15 15 15 14 12 11 10 9 9 10 10 10 11 10 11 10 10
22 21 21 20 18 18 19 16 14 20 25 23 22 21 19 19 19 18 18 17 17 16 15 15 15 16 16 16 14 13 11 11 10 10 10 10 11 11 11 11 10 9
22 22 21 20 20 20 19 17 16 23 26 23 22 21 20 20 19 19 18 18 18 17 16 15 16 17 17 16 15 13 12 11 11 11 11 11 11 11 10 10 10 9
23 22 21 20 20 20 20 18 19 24 25 23 23 22 21 21 20 20 19 19 18 18 17 16 17 17 16 15 15 14 13 11 11 12 12 11 11 10 10 10 9 9
24 22 21 21 20 20 20 19 21 25 26 25 24 23 22 22 21 21 20 19 19 18 17 16 17 17 16 15 14 14 13 12 11 12 12 10 10 9 7 7 8 8
25 22 22 21 20 20 20 20 22 26 27 25 24 23 22 22 22 22 21 21 20 18 17 17 17 16 16 15 14 14 14 12 10 11 11 10 9 9 7 6 6 6
25 23 23 22 21 21 21 21 24 27 27 26 24 23 23 23 23 23 22 21 20 19 18 17 17 16 16 15 15 14 14 13 10 9 10 9 9 9 8 7 8 7
25 25 24 22 21 21 21 22 26 29 28 27 25 24 23 23 24 24 23 22 21 20 19 18 17 17 16 15 15 14 14 14 10 8 9 8 8 9 8 7 8 8
26 25 24 23 22 22 22 24 28 30 29 27 26 24 23 23 24 24 23 22 22 21 20 19 18 17 16 16 16 15 14 13 10 8 8 8 8 8 7 7 7 8
28 26 25 25 23 22 23 25 28 30 29 28 26 24 24 24 24 24 23 23 23 22 21 19 18 17 17 17 16 16 15 12 9 8 9 8 9 9 7 7 7 8
29 28 27 25 24 23 24 25 28 30 29 27 25 24 23 23 23 24 23 23 23 22 21 20 18 18 18 17 17 17 15 14 12 10 10 10 10 10 9 8 8 8
29 28 26 24 23 24 23 24 27 29 28 26 24 23 22 22 23 24 23 23 23 22 22 21 19 18 18 17 18 18 17 16 15 13 14 14 13 12 11 10 9 7
28 27 24 23 23 22 22 24 27 28 27 25 24 22 22 22 23 24 24 23 23 23 22 20 19 18 18 18 19 18 18 17 15 13 15 16 15 13 12 11 9 8
Wind_Direction
173 177 182 176 177 191 201 213 222 221 242 261 278 291 274 212 181 171 162 152 146 143 142 140 134 131 129 128 127 125 122 119 115 113 109 105 101 99 97 93 90 88
174 174 177 181 188 199 206 214 224 235 253 271 285 281 221 183 172 166 159 152 148 146 146 142 135 133 131 127 127 125 123 120 115 111 108 107 105 102 97 92 91 90
174 176 181 187 195 204 209 218 237 250 263 280 285 235 178 170 168 163 156 151 151 149 147 142 136 133 129 127 129 128 125 119 112 110 111 110 105 100 96 91 91 92
177 180 185 190 197 205 210 224 248 259 271 285 260 179 166 165 165 161 155 151 152 150 146 141 136 133 129 131 132 128 125 119 114 114 112 108 103 99 97 94 94 95
183 186 189 194 198 202 206 223 253 263 279 280 193 165 162 163 162 159 156 152 150 149 146 141 138 135 133 133 132 129 126 122 117 114 110 107 106 104 101 98 96 93
188 188 191 197 199 198 204 229 259 268 278 235 171 162 161 162 161 158 156 151 149 149 147 143 141 139 137 134 134 133 131 124 117 112 111 112 110 108 105 101 97 92
189 188 194 199 197 197 210 239 259 268 266 187 168 163 161 163 162 158 155 151 150 150 148 146 145 142 139 136 138 138 133 125 118 116 119 117 114 112 108 103 97 92
188 190 199 199 197 204 221 240 249 258 233 179 169 164 163 166 164 160 156 154 154 152 151 150 148 146 142 141 141 140 134 127 122 124 126 122 119 116 109 104 98 94
188 195 203 198 200 214 225 233 237 239 202 178 170 165 167 168 166 163 159 157 156 154 154 153 152 149 146 144 143 140 138 133 130 132 131 127 124 117 109 104 100 97
191 201 203 198 203 215 220 225 230 217 187 179 172 169 171 170 168 166 162 159 158 157 157 156 155 153 149 148 147 146 144 139 136 137 136 131 125 117 112 106 101 101
196 204 201 198 206 213 215 221 227 207 186 179 172 172 175 172 170 168 164 162 160 159 159 157 158 157 153 153 153 152 150 146 144 142 137 133 125 119 115 109 107 106
200 203 200 202 209 213 213 220 223 200 185 179 174 175 178 175 173 169 166 165 162 161 162 161 161 160 159 160 159 157 155 151 149 145 141 136 128 124 120 114 114 113
201 202 201 204 210 213 214 221 220 193 183 180 175 177 181 179 175 172 170 168 166 166 166 166 166 165 166 166 164 163 161 157 154 149 146 142 133 129 125 120 121 120
198 200 202 204 209 212 213 221 216 188 182 182 177 177 181 180 178 176 173 171 171 171 171 172 172 171 172 171 169 169 167 162 159 156 152 148 141 135 130 125 125 124
197 200 202 203 208 210 211 219 209 187 183 182 178 178 180 181 182 180 176 175 176 176 177 177 177 178 178 175 174 175 174 169 165 161 158 153 144 138 133 128 126 125
200 202 202 203 206 208 211 216 205 188 183 181 180 180 181 181 183 182 180 180 180 180 182 182 183 186 183 179 178 178 178 175 168 163 161 155 147 140 135 132 128 123
203 203 203 204 205 207 210 213 203 190 183 182 184 184 183 183 184 183 184 185 184 185 186 186 189 190 186 182 181 180 179 175 170 168 162 155 148 141 136 133 127 120
205 204 205 205 205 205 208 210 201 190 184 186 187 187 186 186 185 185 187 188 188 189 189 191 194 190 186 186 185 184 180 171 169 170 163 156 151 143 141 141 129 119
206 206 206 204 204 204 207 208 200 191 188 189 189 189 189 188 186 187 190 190 190 190 191 195 197 191 187 188 188 187 179 165 167 173 163 160 161 154 157 161 144 127
206 208 207 204 202 203 207 206 198 193 192 191 191 191 190 189 189 189 192 192 190 191 192 197 199 193 190 189 187 188 178 162 168 182 170 170 176 166 165 166 155 149
209 209 206 203 203 204 206 205 199 196 194 193 194 193 191 192 192 192 194 193 192 192 193 197 199 193 190 190 187 187 180 167 172 192 185 183 190 180 173 172 160 152
211 212 207 202 203 203 204 205 201 197 196 195 194 193 193 195 195 195 196 194 194 195 195 198 199 192 190 191 187 186 183 173 178 205 205 199 205 198 186 183 170 155
212 214 209 203 203 203 204 207 204 199 197 196 195 195 196 196 197 198 198 198 198 198 198 200 199 192 190 191 187 187 184 175 180 215 221 215 217 213 202 200 188 169
215 215 209 204 203 203 206 209 204 199 197 196 197 197 196 196 199 201 201 202 202 201 201 202 201 195 192 190 189 190 187 179 184 206 219 221 222 219 212 213 209 186
220 218 211 205 205 205 208 209 204 198 196 196 197 197 197 199 201 203 204 204 203 203 203 204 202 197 193 192 192 193 192 188 187 198 212 216 217 220 218 216 217 204
224 220 213 208 207 207 208 207 202 198 196 196 197 197 200 203 203 205 206 205 203 203 203 204 204 200 196 195 195 196 196 193 191 203 219 219 214 217 222 222 218 212